Location: *
(32.3758°S, 63.1185°E)
Time: 17:23:39
(UTC+00:00)

Cosmos 2237 Rocket - Pass Details

Date: 02 June 2023
Orbit: 833 x 851 km, 71.0° (Epoch: 22 September)

Event Time Altitude Azimuth Distance (km) Brightness Sun altitude
Rises 13:43:26 0° 197° (SSW) 3,440 5.4 -11.3°
Reaches altitude 10° 13:45:57 10° 194° (SSW) 2,496 4.6 -11.8°
Maximum altitude 13:51:39 66° 112° (ESE) 929 2.2 -12.9°
Drops below altitude 10° 13:57:15 10° 30° (NNE) 2,455 4.5 -14.0°
Sets 13:59:41 0° 26° (NNE) 3,379 5.2 -14.5°
